Wind_Speed
36 37 39 41 42 42 44 45 44 44 42 40 39 42 44 39 33 32 38 47 47 48 48 54 61 58 54 53 53 50 49 43 38 33 23 20 20 17 13 3 3 8 1 5
42 44 46 48 49 50 50 49 51 51 50 47 46 48 50 47 40 35 33 39 48 49 49 52 60 63 58 54 56 53 52 46 43 33 24 24 24 20 16 9 5 8 7 2
49 50 51 51 52 54 58 59 57 58 58 56 55 54 54 53 50 42 37 36 44 50 52 53 58 66 62 58 58 58 56 49 43 38 37 30 28 25 19 15 12 8 3 5
52 52 54 57 59 61 64 66 66 68 68 67 65 62 61 60 58 51 45 41 42 51 55 56 58 66 68 64 60 62 60 53 47 47 36 31 29 26 21 22 16 10 4 4
56 58 61 64 67 69 73 76 79 79 80 80 77 72 68 68 65 60 55 49 48 49 57 59 60 64 70 68 64 64 61 58 53 50 39 33 30 26 27 22 21 10 12 9
61 64 66 69 72 76 81 85 89 91 91 91 89 84 81 77 73 68 63 59 55 49 56 64 66 65 70 71 65 63 62 61 55 51 44 37 28 28 23 25 19 17 18 11
65 65 66 64 71 83 94 101 104 102 102 102 100 98 91 87 81 75 69 66 59 56 53 63 69 70 70 73 71 65 64 64 59 57 50 35 34 29 28 29 24 21 14 11
72 64 66 75 83 91 93 91 88 87 89 94 98 100 98 89 92 81 77 71 67 62 57 58 70 74 73 72 74 68 67 69 63 61 48 42 34 29 24 24 26 24 14 12
70 71 78 78 80 73 66 59 58 56 60 66 71 80 89 94 89 90 83 77 73 66 64 60 65 74 70 74 77 73 71 74 70 65 53 44 35 35 31 29 23 18 22 15
75 81 80 75 62 55 49 45 43 45 50 54 57 67 77 87 91 91 92 81 78 72 67 62 61 69 76 76 76 77 72 74 70 63 54 49 42 37 33 23 21 25 25 18
82 86 78 62 51 45 40 36 34 37 41 43 52 64 78 86 83 92 91 85 81 77 72 63 59 64 75 76 76 79 72 73 69 63 55 51 43 37 27 29 29 29 26 22
86 81 66 52 44 36 30 26 27 29 32 42 51 62 75 84 83 88 91 87 83 78 72 63 60 60 72 77 77 81 78 73 70 63 53 51 43 37 38 42 30 27 25 23
87 73 54 44 35 26 20 18 19 22 28 37 49 59 70 81 85 92 96 90 82 78 70 64 61 60 68 79 78 80 77 78 75 72 65 58 50 47 44 38 33 31 28 24
77 61 47 36 25 17 12 9 12 18 27 37 47 57 67 81 84 91 94 90 84 79 70 64 62 63 68 80 81 82 81 82 76 74 72 66 58 51 48 40 36 32 28 23
66 51 40 28 18 11 4 4 11 20 28 37 47 57 67 79 86 91 90 87 82 78 70 67 67 66 69 82 83 83 84 83 80 74 70 65 60 58 54 44 41 36 34 34
60 45 34 21 13 7 2 10 16 23 31 39 46 56 68 78 85 88 88 85 84 79 73 69 68 68 71 84 84 84 84 84 82 79 77 72 67 60 58 49 44 41 38 35
51 39 28 16 9 2 8 14 19 25 31 36 46 56 67 75 80 84 83 81 79 76 71 72 70 69 75 87 86 85 86 86 86 82 81 76 70 62 59 53 50 47 38 31
45 34 23 14 8 1 9 15 22 27 31 37 46 56 65 71 76 76 75 74 73 71 72 67 67 68 81 89 88 87 88 87 89 84 82 78 74 66 61 57 55 49 43 35
41 29 19 11 6 1 10 19 25 31 37 45 53 58 60 61 62 67 70 69 70 68 64 64 66 74 87 87 87 88 90 89 91 86 84 81 75 69 65 62 59 54 49 43
33 22 15 8 5 5 13 20 28 37 42 48 53 55 59 60 61 61 59 58 60 63 64 67 73 78 80 81 81 88 90 89 91 88 84 81 77 74 70 66 64 58 51 53
30 18 11 6 8 11 17 24 32 41 49 57 61 63 61 58 54 54 58 57 55 62 67 72 75 80 77 77 71 78 88 87 89 87 83 80 81 77 71 67 63 59 54 54
26 14 8 4 13 16 20 28 37 49 62 62 68 65 65 61 54 53 59 57 57 57 66 68 73 73 72 75 73 72 82 87 87 86 82 82 82 79 76 72 69 65 60 58
24 12 7 4 14 21 21 25 37 62 65 69 67 64 60 62 68 61 57 59 55 58 66 73 66 54 70 71 74 75 76 86 85 87 86 81 80 79 77 74 70 67 62 61
24 12 5 5 13 21 26 34 43 57 73 70 68 66 59 64 59 57 60 55 54 46 65 73 63 50 56 65 76 67 71 85 85 89 88 82 80 81 78 75 71 68 66 64
25 13 5 5 13 24 33 32 46 61 73 73 69 70 64 62 60 62 58 54 51 40 72 77 68 54 50 66 71 78 70 76 88 90 89 85 80 79 78 74 72 70 69 67
26 19 5 4 9 21 36 43 51 53 73 74 76 75 75 66 69 64 58 57 57 56 77 84 86 71 61 60 74 78 79 75 83 85 85 87 84 80 79 78 76 75 73 69
24 22 14 5 6 13 23 34 48 66 60 73 71 78 81 72 71 67 67 62 66 76 88 85 88 89 84 77 76 82 86 82 84 83 85 87 88 87 83 79 78 74 72 70
Wind_Direction
284 279 277 277 274 270 268 265 259 257 256 254 252 247 248 248 247 242 231 225 223 219 216 214 212 212 213 212 207 205 209 203 206 219 218 223 215 215 214 172 314 272 293 316
286 283 279 275 273 272 268 265 262 258 252 249 247 246 245 246 243 240 236 227 223 222 215 213 212 212 211 210 206 203 207 202 207 210 216 223 216 212 191 154 204 299 6 25
290 285 282 278 273 269 264 261 258 257 253 249 245 242 243 243 241 235 229 224 219 220 216 213 212 212 210 208 206 201 201 202 202 202 208 215 218 208 187 192 204 271 39 75
291 285 282 278 275 271 267 262 258 255 253 247 244 240 238 238 238 232 226 220 216 214 215 212 213 212 210 207 206 202 200 195 201 212 207 216 222 214 206 200 204 222 241 192
291 285 279 279 274 269 265 260 257 254 251 247 242 239 236 235 233 231 225 219 216 212 211 212 213 214 211 209 206 201 199 193 200 205 207 215 220 220 214 208 213 219 249 267
293 288 285 281 277 272 266 259 254 250 247 246 244 237 233 232 230 228 224 220 217 212 211 210 210 213 212 210 206 202 197 194 198 205 205 210 217 221 219 221 209 230 246 253
305 294 289 284 280 273 264 258 257 257 252 249 243 236 231 229 228 225 222 220 216 213 210 211 211 211 211 209 206 201 195 193 196 204 206 201 214 219 214 213 211 221 223 227
310 303 299 296 285 277 276 275 270 263 258 253 249 242 240 233 224 222 221 217 215 213 211 210 212 211 210 207 206 201 195 193 193 204 197 205 208 213 209 209 226 227 207 226
317 313 312 301 294 289 284 277 269 259 248 243 236 236 235 233 228 221 217 214 213 210 212 211 211 213 210 207 205 202 197 193 192 198 196 202 204 210 209 221 239 208 190 199
322 322 315 306 302 295 288 277 264 251 240 234 224 216 216 222 223 222 217 213 210 209 211 213 211 210 212 208 204 203 200 195 191 194 192 200 197 208 209 220 212 189 183 183
326 325 318 311 306 300 291 274 258 244 233 222 215 209 205 207 211 216 216 211 209 209 210 212 213 209 211 208 204 202 201 196 192 190 191 201 200 200 198 210 208 191 181 173
330 326 321 315 309 303 289 270 254 238 223 213 207 204 202 199 200 207 211 209 208 208 209 210 215 209 210 208 204 200 199 194 190 186 185 201 200 192 197 208 203 195 181 169
332 328 323 319 313 305 287 264 244 226 213 206 200 199 198 198 193 200 207 208 206 208 208 208 214 213 209 209 203 200 195 193 190 184 184 194 195 197 204 205 200 194 185 186
334 331 327 325 318 307 294 256 222 205 200 196 194 192 193 193 190 198 202 204 205 207 208 209 213 213 208 206 202 198 194 194 188 185 185 195 196 197 207 203 204 204 208 207
336 334 334 331 328 326 309 206 189 187 186 188 188 187 187 187 189 197 200 202 204 209 210 212 214 213 207 204 200 197 194 192 189 185 188 197 198 199 207 205 211 210 212 216
338 339 339 337 355 8 97 172 175 177 179 180 184 186 185 186 189 194 199 201 204 209 212 212 213 211 206 202 198 195 193 191 188 187 190 197 202 198 206 204 212 220 224 225
341 343 341 352 7 68 166 170 173 176 179 179 180 181 183 184 188 194 197 200 204 208 209 211 212 210 203 199 196 193 192 190 189 189 193 199 202 199 205 207 211 217 219 216
344 345 345 7 9 170 170 167 171 173 175 173 173 177 180 183 188 190 194 197 200 203 207 208 210 204 197 195 194 192 191 191 190 191 195 200 203 201 207 209 212 216 219 221
346 345 348 9 9 80 158 162 166 166 165 167 170 173 176 179 183 188 194 195 200 204 206 208 203 194 193 193 193 192 192 192 190 192 197 201 203 205 207 211 216 216 217 223
351 348 351 22 37 134 154 165 161 159 162 163 165 168 171 174 178 182 186 193 199 200 198 196 190 188 191 192 193 194 193 194 191 194 198 202 204 208 209 213 217 220 217 223
352 356 2 63 111 147 155 160 158 159 160 160 160 158 159 165 163 176 182 184 184 189 188 187 183 189 190 192 192 195 195 196 195 195 199 203 207 209 212 215 220 224 226 230
356 6 23 86 128 146 163 165 162 162 166 166 161 158 157 151 148 174 179 174 178 182 185 180 184 185 189 192 191 191 199 198 196 197 201 206 209 210 214 217 220 225 228 233
357 3 59 119 147 145 158 165 166 166 172 168 167 163 161 163 170 182 185 177 174 179 181 176 175 191 192 191 192 193 198 201 198 200 204 208 211 213 216 219 221 226 231 235
1 4 34 121 149 152 172 171 171 171 170 171 171 165 172 172 178 186 192 187 179 182 182 175 172 186 189 191 192 191 196 200 200 204 205 208 213 215 217 221 224 227 233 237
11 14 34 114 163 168 180 180 181 177 177 177 175 176 171 170 170 177 185 187 185 185 181 177 165 175 204 203 198 199 195 202 204 206 207 208 213 219 220 221 225 229 232 237
10 25 44 119 165 178 186 190 193 192 183 183 180 181 176 176 180 181 183 187 186 187 183 184 181 174 187 199 195 194 197 201 206 209 211 210 212 218 222 223 225 227 232 236
21 30 49 102 153 184 188 195 191 198 196 195 195 188 183 184 188 190 190 188 189 186 185 185 188 188 192 194 194 196 198 201 204 209 212 213 215 217 221 225 228 229 232 236
Height
10773 10770 10768 10765 10765 10766 10764 10764 10766 10767 10770 10773 10775 10775 10773 10780 10786 10791 10796 10803 10811 10820 10830 10839 10849 10859 10869 10881 10893 10905 10912 10920 10928 10934 10942 10945 10947 10951 10954 10955 10958 10961 10961 10960
10759 10756 10753 10751 10749 10748 10748 10748 10749 10751 10753 10758 10760 10762 10762 10767 10775 10782 10787 10793 10801 10810 10819 10827 10837 10846 10858 10870 10881 10894 10903 10915 10921 10932 10938 10940 10943 10947 10949 10952 10956 10962 10962 10960
10742 10738 10735 10731 10729 10728 10726 10726 10729 10729 10733 10738 10742 10746 10749 10754 10761 10770 10776 10781 10788 10796 10806 10815 10824 10832 10846 10858 10870 10883 10894 10905 10918 10924 10925 10932 10937 10941 10944 10948 10954 10961 10961 10960
10724 10718 10713 10709 10706 10703 10701 10701 10702 10703 10708 10712 10719 10725 10732 10737 10744 10756 10763 10770 10775 10781 10793 10803 10811 10819 10832 10845 10860 10872 10885 10898 10909 10913 10924 10928 10933 10938 10941 10944 10952 10958 10959 10959
10703 10696 10690 10684 10679 10675 10671 10668 10669 10671 10675 10680 10690 10701 10710 10715 10724 10736 10746 10756 10761 10769 10779 10789 10798 10806 10819 10834 10848 10862 10879 10891 10898 10906 10918 10924 10928 10933 10939 10944 10950 10954 10956 10957
10678 10669 10662 10656 10648 10640 10634 10628 10626 10629 10637 10643 10653 10670 10680 10690 10702 10715 10728 10737 10748 10758 10764 10773 10783 10792 10806 10823 10841 10857 10871 10883 10891 10901 10910 10918 10927 10932 10937 10942 10947 10951 10952 10955
10650 10639 10628 10621 10610 10595 10580 10573 10574 10581 10589 10597 10611 10627 10647 10661 10676 10693 10707 10720 10734 10743 10751 10759 10770 10780 10792 10810 10826 10845 10861 10873 10884 10889 10900 10916 10920 10927 10932 10936 10940 10945 10950 10951
10620 10607 10593 10579 10560 10545 10537 10532 10529 10533 10544 10551 10569 10585 10606 10631 10648 10666 10682 10700 10713 10726 10737 10746 10756 10766 10778 10799 10815 10834 10848 10860 10875 10883 10900 10909 10916 10923 10929 10933 10936 10941 10945 10948
10588 10573 10555 10533 10518 10505 10495 10491 10489 10494 10499 10507 10523 10548 10574 10595 10621 10641 10660 10677 10694 10709 10720 10730 10742 10755 10779 10784 10803 10820 10834 10847 10860 10875 10892 10903 10912 10917 10922 10926 10933 10936 10939 10942
10558 10539 10519 10499 10484 10474 10466 10463 10463 10466 10470 10479 10496 10513 10534 10562 10588 10616 10635 10657 10675 10692 10706 10718 10732 10748 10759 10774 10793 10810 10826 10840 10859 10872 10887 10893 10903 10911 10918 10927 10928 10931 10934 10937
10533 10512 10489 10473 10460 10451 10446 10443 10444 10446 10452 10466 10476 10491 10510 10532 10561 10591 10618 10640 10657 10675 10690 10708 10721 10736 10748 10764 10782 10801 10821 10837 10854 10869 10883 10885 10897 10908 10917 10918 10924 10926 10930 10933
10511 10488 10469 10455 10444 10436 10431 10429 10429 10433 10441 10450 10462 10478 10495 10515 10544 10571 10600 10623 10641 10662 10681 10700 10710 10726 10738 10755 10771 10789 10805 10830 10848 10865 10883 10881 10893 10902 10904 10906 10920 10925 10927 10930
10492 10469 10454 10441 10433 10426 10421 10419 10421 10426 10433 10442 10453 10467 10486 10505 10530 10552 10581 10608 10635 10653 10673 10689 10702 10715 10729 10742 10764 10782 10801 10820 10834 10847 10863 10870 10880 10890 10893 10904 10913 10920 10923 10927
10477 10459 10445 10434 10425 10420 10417 10417 10419 10423 10430 10437 10449 10462 10477 10496 10523 10546 10568 10598 10623 10643 10661 10678 10691 10703 10715 10730 10751 10770 10792 10808 10828 10842 10850 10857 10870 10881 10886 10896 10906 10914 10920 10924
10467 10452 10439 10430 10422 10418 10416 10417 10419 10423 10430 10438 10448 10459 10474 10494 10515 10539 10566 10593 10618 10633 10651 10665 10677 10690 10704 10718 10740 10762 10781 10801 10817 10839 10851 10859 10866 10872 10879 10890 10899 10905 10912 10918
10462 10448 10437 10429 10423 10421 10419 10419 10422 10426 10432 10440 10451 10462 10476 10493 10513 10538 10563 10590 10609 10623 10639 10654 10667 10679 10692 10708 10729 10753 10774 10794 10811 10826 10836 10846 10854 10865 10871 10880 10890 10897 10902 10909
10459 10447 10438 10431 10426 10424 10421 10423 10426 10431 10437 10445 10455 10466 10481 10498 10518 10539 10562 10583 10603 10618 10631 10641 10654 10668 10680 10700 10723 10746 10765 10784 10800 10815 10825 10834 10847 10861 10866 10872 10879 10886 10894 10901
10458 10447 10440 10434 10430 10428 10427 10429 10432 10436 10443 10451 10461 10472 10486 10502 10519 10540 10560 10579 10595 10607 10618 10630 10642 10656 10673 10691 10714 10736 10756 10774 10790 10806 10818 10825 10838 10851 10860 10865 10871 10878 10886 10894
10459 10449 10442 10437 10435 10434 10434 10435 10438 10443 10450 10457 10466 10478 10493 10509 10527 10543 10557 10572 10584 10598 10611 10621 10632 10650 10667 10688 10709 10728 10745 10762 10780 10794 10807 10817 10831 10843 10851 10858 10862 10870 10878 10885
10459 10451 10444 10440 10439 10439 10440 10442 10446 10451 10458 10466 10476 10487 10498 10511 10525 10539 10555 10568 10581 10590 10600 10615 10631 10649 10666 10686 10705 10722 10741 10756 10771 10785 10800 10812 10823 10833 10843 10849 10853 10859 10868 10872
10460 10453 10447 10444 10444 10445 10446 10450 10455 10460 10466 10475 10485 10496 10504 10515 10527 10541 10555 10565 10575 10586 10600 10615 10634 10648 10667 10686 10704 10720 10736 10750 10766 10781 10794 10803 10811 10823 10835 10843 10848 10854 10861 10867
10462 10457 10451 10449 10448 10450 10454 10458 10464 10468 10474 10482 10491 10499 10509 10519 10529 10543 10553 10561 10575 10591 10604 10623 10637 10651 10666 10681 10697 10713 10729 10744 10759 10774 10784 10791 10801 10813 10823 10831 10839 10845 10852 10856
10464 10460 10456 10453 10453 10454 10458 10464 10472 10478 10483 10491 10497 10506 10514 10525 10536 10545 10556 10563 10579 10594 10608 10624 10643 10659 10667 10680 10693 10708 10721 10737 10753 10764 10772 10783 10793 10802 10811 10821 10830 10837 10844 10850
10466 10461 10459 10457 10456 10459 10463 10470 10476 10484 10492 10497 10503 10511 10519 10530 10541 10550 10560 10571 10584 10597 10612 10626 10643 10659 10669 10678 10689 10701 10712 10726 10740 10749 10761 10773 10782 10791 10800 10810 10821 10828 10833 10839
10470 10465 10461 10460 10461 10464 10470 10475 10481 10488 10495 10502 10511 10516 10527 10536 10544 10555 10564 10576 10588 10601 10614 10626 10637 10652 10662 10672 10682 10694 10704 10716 10725 10735 10750 10763 10774 10782 10792 10801 10810 10817 10821 10827
10473 10469 10466 10464 10464 10468 10473 10480 10485 10489 10496 10504 10510 10519 10528 10535 10545 10554 10563 10574 10585 10597 10612 10622 10629 10639 10655 10662 10673 10684 10695 10705 10717 10729 10742 10754 10762 10771 10779 10787 10794 10802 10809 10816
10476 10471 10468 10468 10468 10470 10473 10478 10479 10488 10494 10502 10509 10519 10528 10535 10543 10553 10561 10567 10579 10589 10601 10609 10620 10631 10639 10648 10662 10674 10681 10694 10706 10718 10729 10740 10749 10758 10765 10773 10780 10789 10797 10803